sat.trackr.live / text

‹ back to catalog

ONEWEB-0190

NORAD 48796 · 2021-045AF

PAYLOAD ACTIVE UNKNOWN

§ Identity

Operator
Country
UK
Launch date
2021-05-28
Launch site
VOSTO
Launch vehicle
Mass (kg)
RCS (m²)

Purposes: comms

External: N2YO · Heavens-Above · Gunter

§ Orbital elements

Epoch: 2026-09-09T23:05:45.179808Z

Period
109.46 min
Inclination
87.8974°
Eccentricity
0.0002458
Mean motion
13.15549006 rev/d
Perigee alt
1,199.9 km
Apogee alt
1,203.6 km
Semi-major
7,579.9 km
B*
6.1095e-4
RAAN
242.2967°
Arg perigee
72.0658°
Mean anomaly
288.0740°
Rev number
25,551

§ Raw data

ONEWEB-01901 48796U 21045AF  26252.96232847  .00000243  00000+0  61095-3 0  99962 48796  87.8974 242.2967 0002458  72.0658 288.0740 13.15549006255519

JSON: /api/v1/satellites/48796 · /tle

For live sub-satellite position, see the globe view (requires WebGL).

§ Visibility from observer

Set your observer location to see the next 7 days of passes ≥ 10°. The values pass through the URL so the page stays shareable.

No JS? Fill the form by hand. The geolocation button needs JavaScript.